Regional Weather Roundup
Issued by NWS

Home | Current Version | Previous Version | Text Only | Print | Product List | Glossary Off
Versions: 1 2 3 4 5 6 7 8 9 10 11 12 13 14 15 16 17 18 19 20 21 22 23 24 25 26 27 28 29 30 31 32 33 34 35 36 37 38 39 40 41 42 43 44 45 46 47 48 49 50

752
ASUS43 KIND 232009
RWRIN

WEATHER ROUNDUP FOR INDIANA
NATIONAL WEATHER SERVICE INDIANAPOLIS IN
400 PM EDT SAT SEP 23 2017

NOTE: "FAIR" INDICATES FEW OR NO CLOUDS BELOW 12,000 FEET WITH NO
SIGNIFICANT WEATHER AND/OR OBSTRUCTIONS TO VISIBILITY.

* - STATION DOES NOT REPORT WEATHER SUCH AS PRECIPITATION OR FOG.

+ - STATION NOT QUALITY CONTROLLED BY THE NATIONAL WEATHER SERVICE.
    USE DATA WITH CAUTION...ESPECIALLY DEWPOINT AND RELATIVE
    HUMIDITY OBSERVATIONS.

INZ001>003-010>013-019-020-232100-
NORTHWEST INDIANA

CITY           SKY/WX    TMP DP  RH WIND       PRES   REMARKS
GARY /AIRPORT/ MOSUNNY   90  64  43 NE12      30.07F
KNOX *+        SUNNY     90  63  40 CALM      30.07F
LA PORTE +     SUNNY     92  64  39 SE7       30.08F
MICHIGAN CITY+ SUNNY     88  70  55 NW8       30.08F
MONTICELLO +   SUNNY     90  63  40 CALM      30.06F
RENSSELAER +   SUNNY     91  45  19 CALM      30.06F
VALPARAISO     SUNNY     94  62  34 E7        30.07F

$$

LMZ046-743>745-232100-
SOUTHERN LAKE MICHIGAN

STATION/POSITION TIME  TEMP    WIND        PRES    WAVE
                       AIR SEA DIR/SP/G            HT
                 (UTC) (F)     (DEG/KT/KT) (MB)    (FT)
BURNS HARBOR     2001   80      70/  8/ 10 1018.3
MICHIGAN CITY    1940   77      40/  5/  6   N/A
5NW MICH CITY    2000   78 74   20/  6/  8   N/A     0

$$

INZ004-005-014>016-021>024-232100-
NORTH CENTRAL INDIANA

CITY           SKY/WX    TMP DP  RH WIND       PRES   REMARKS
ELKHART        SUNNY     91  63  38 CALM      30.09F
GOSHEN         SUNNY     91  62  37 CALM      30.09F
LOGANSPORT +   SUNNY     90  63  40 NE6       30.08F
PERU/GRISSOM   SUNNY     90  64  41 NE7       30.07F
SOUTH BEND     SUNNY     91  64  40 SE6       30.08F
WARSAW +       SUNNY     88  68  51 NE8       30.09F

$$

INZ006>009-017-018-025>027-232100-
NORTHEAST INDIANA

CITY           SKY/WX    TMP DP  RH WIND       PRES   REMARKS
AUBURN +       SUNNY     90  57  33 E5        30.11F
FORT WAYNE     SUNNY     89  64  43 E7        30.10F
HUNTINGTON +   SUNNY     90  64  41 NE9       30.08F
KENDALLVILLE + SUNNY     89  66  46 CALM      30.12F

$$

INZ028-029-035-036-043>045-051>053-232100-
WEST CENTRAL INDIANA

CITY           SKY/WX    TMP DP  RH WIND       PRES   REMARKS
CRAWFORDSVL +  SUNNY     90  63  40 NE6       30.06
GREENCASTLE +  SUNNY     91  59  33 E5        30.06F
LAFAYETTE      SUNNY     89  68  49 SE3       30.05F
TERRE HAUTE    SUNNY     92  58  31 E5        30.04F

$$

INZ030>032-037>040-046>048-054>057-064-065-232100-
CENTRAL INDIANA

CITY           SKY/WX    TMP DP  RH WIND       PRES   REMARKS
ANDERSON       SUNNY     90  63  40 VRB5      30.09F
CP ATTERBURY + SUNNY     90  59  35 E3        30.07F
COLUMBUS       SUNNY     90  52  27 CALM      30.07F
FISHERS *+     SUNNY     90  70  51 NE6       30.07F HX  95
FRANKFORT +    CLOUDY    94  65  37 E5        30.09F HX  97
INDIANAPOLIS   MOSUNNY   90  64  42 SE7       30.07F
-EAGLE CREEK   SUNNY     91  63  39 E5        30.06F
KOKOMO +       SUNNY     89  66  46 SE5       30.09F
MARION +       SUNNY     90  63  40 E7        30.09F HAZE
MT COMFORT *+  SUNNY     90  64  43 E7        30.09F
SHELBYVILLE    SUNNY     91  61  36 E9        30.07F
ZIONSVILLE +   SUNNY     87  64  46 NE6       30.09F

$$

INZ033-034-041-042-049-050-058-059-232100-
EAST CENTRAL INDIANA

CITY           SKY/WX    TMP DP  RH WIND       PRES   REMARKS
MUNCIE         SUNNY     92  63  38 CALM      30.09F
RICHMOND +     SUNNY     88  63  42 E7        30.11F

$$

INZ060-061-067>069-081>083-085>088-232100-
SOUTHWEST INDIANA

CITY           SKY/WX    TMP DP  RH WIND       PRES   REMARKS
EVANSVILLE     SUNNY     88  62  41 NE9       30.04F
HUNTINGBURG +  SUNNY     87  65  47 E9        30.05F
WASHINGTON +   SUNNY     90  59  36 E9        30.04F

$$

INZ062-063-066-070>080-084-089>092-232100-
SOUTH CENTRAL AND SOUTHEAST INDIANA

CITY           SKY/WX    TMP DP  RH WIND       PRES   REMARKS
BEDFORD +      SUNNY     90  59  35 E6        30.06F
BLOOMINGTON    SUNNY     90  60  36 SE12      30.07F
MADISON *+     SUNNY     88  59  37 S7        30.09F
NORTH VERNON + SUNNY     88  63  42 E6        30.08F
SEYMOUR +      SUNNY     91  61  35 E3        30.06F

$$





USA.gov is the U.S. government's official web portal to all federal, state and local government web resources and services.